W5GGH Weather Reports


Display with metric or nautical units.
time (UTC)temp
F
wind
direction
speed
MPH
gust
MPH
rain 1hr
in
rain 24hr
in
rain mn
in
humidity
%
barometer
mb
20260906224847 101 31 2.0 2.0 0.00 0.00 0.00 38 1027.4
20260906224343 101 52 2.0 6.0 0.00 0.00 0.00 37 1027.4
20260906223839 101 227 0.0 3.0 0.00 0.00 0.00 38 1027.5
20260906223335 101 54 2.0 3.0 0.00 0.00 0.00 38 1027.4
20260906222833 101 321 2.0 6.0 0.00 0.00 0.00 37 1027.4
20260906222327 100 23 2.0 2.0 0.00 0.00 0.00 38 1027.4
20260906221825 101 59 1.0 2.0 0.00 0.00 0.00 37 1027.5
20260906221325 101 30 1.0 2.0 0.00 0.00 0.00 37 1027.6
20260906220820 102 60 2.0 4.0 0.00 0.00 0.00 36 1027.8
20260906220315 102 0 1.0 2.0 0.00 0.00 0.00 35 1027.5
20260906215814 102 126 1.0 3.0 0.00 0.00 0.00 36 1027.6
20260906215309 102 93 1.0 2.0 0.00 0.00 0.00 36 1027.7
20260906214807 102 181 0.0 3.0 0.00 0.00 0.00 37 1027.8
20260906214302 102 185 0.0 5.0 0.00 0.00 0.00 36 1027.7
20260906213801 102 71 2.0 5.0 0.00 0.00 0.00 36 1028.0
20260906213301 102 109 2.0 5.0 0.00 0.00 0.00 37 1027.9
20260906212758 102 126 2.0 3.0 0.00 0.00 0.00 37 1028.0
20260906212254 101 53 2.0 4.0 0.00 0.00 0.00 38 1027.9
20260906211753 102 149 2.0 7.0 0.00 0.00 0.00 36 1028.1
20260906211248 103 18 2.0 3.0 0.00 0.00 0.00 36 1028.2
20260906210744 103 62 2.0 2.0 0.00 0.00 0.00 36 1028.1
20260906210238 103 25 0.0 2.0 0.00 0.00 0.00 38 1028.3
20260906205733 102 269 0.0 4.0 0.00 0.00 0.00 36 1028.3
20260906205230 102 129 3.0 4.0 0.00 0.00 0.00 37 1028.4
20260906204730 102 47 0.0 3.0 0.00 0.00 0.00 37 1028.5
20260906204229 102 38 1.0 3.0 0.00 0.00 0.00 37 1028.5
20260906203729 102 351 1.0 3.0 0.00 0.00 0.00 36 1028.5
20260906203224 102 106 1.0 4.0 0.00 0.00 0.00 37 1028.6
20260906202721 102 28 2.0 5.0 0.00 0.00 0.00 37 1028.8
20260906202220 101 157 5.0 5.0 0.00 0.00 0.00 37 1028.9
20260906201716 101 359 4.0 4.0 0.00 0.00 0.00 38 1028.7
20260906201215 101 54 1.0 3.0 0.00 0.00 0.00 39 1028.7
20260906200711 101 110 3.0 4.0 0.00 0.00 0.00 38 1028.7
20260906200207 102 107 4.0 4.0 0.00 0.00 0.00 39 1028.9
20260906195702 101 255 2.0 4.0 0.00 0.00 0.00 39 1028.9
20260906195158 101 73 2.0 5.0 0.00 0.00 0.00 39 1028.9
20260906194654 101 49 4.0 8.0 0.00 0.00 0.00 40 1029.0
20260906194149 101 130 1.0 2.0 0.00 0.00 0.00 38 1029.0
20260906193644 100 138 5.0 5.0 0.00 0.00 0.00 39 1029.1
20260906193139 100 89 2.0 3.0 0.00 0.00 0.00 40 1029.1
20260906192635 100 50 2.0 4.0 0.00 0.00 0.00 40 1029.1
20260906192134 100 117 2.0 3.0 0.00 0.00 0.00 40 1029.3
20260906191629 100 318 1.0 5.0 0.00 0.00 0.00 40 1029.4
20260906191128 100 20 0.0 3.0 0.00 0.00 0.00 41 1029.5
20260906190628 100 147 2.0 3.0 0.00 0.00 0.00 42 1029.2
20260906190123 101 347 3.0 4.0 0.00 0.00 0.00 41 1029.4
20260906185622 100 266 2.0 3.0 0.00 0.00 0.00 42 1029.4
20260906185121 100 64 1.0 3.0 0.00 0.00 0.00 41 1029.6
20260906184616 99 41 2.0 5.0 0.00 0.00 0.00 42 1029.7
20260906184112 98 79 1.0 3.0 0.00 0.00 0.00 42 1029.7
20260906183608 99 69 2.0 2.0 0.00 0.00 0.00 43 1029.7
20260906183103 100 344 0.0 2.0 0.00 0.00 0.00 41 1030.0
20260906182558 99 250 1.0 2.0 0.00 0.00 0.00 43 1030.2
20260906182054 99 72 2.0 5.0 0.00 0.00 0.00 43 1030.1
20260906181549 99 352 0.0 3.0 0.00 0.00 0.00 43 1030.1
20260906181045 98 118 0.0 2.0 0.00 0.00 0.00 44 1030.1
20260906180545 98 170 0.0 2.0 0.00 0.00 0.00 43 1030.3
20260906180044 98 170 0.0 2.0 0.00 0.00 0.00 43 1030.4
20260906175543 98 71 2.0 2.0 0.00 0.00 0.00 46 1030.5
20260906175038 98 141 5.0 5.0 0.00 0.00 0.00 43 1030.5
20260906174536 98 57 1.0 2.0 0.00 0.00 0.00 45 1030.5
20260906174031 98 135 1.0 3.0 0.00 0.00 0.00 44 1030.7
20260906173527 98 121 1.0 1.0 0.00 0.00 0.00 46 1030.7
20260906173023 98 94 2.0 3.0 0.00 0.00 0.00 46 1030.9
20260906172522 98 165 2.0 4.0 0.00 0.00 0.00 44 1031.0
20260906172018 98 166 0.0 0.0 0.00 0.00 0.00 45 1030.9
20260906171513 98 91 2.0 3.0 0.00 0.00 0.00 45 1031.1
20260906171008 97 78 2.0 6.0 0.00 0.00 0.00 46 1031.3
20260906170504 97 189 0.0 3.0 0.00 0.00 0.00 45 1031.3
20260906170001 97 77 2.0 2.0 0.00 0.00 0.00 47 1031.5
20260906165459 97 354 2.0 4.0 0.00 0.00 0.00 48 1031.6
20260906164955 96 23 2.0 2.0 0.00 0.00 0.00 48 1031.3
20260906164453 96 28 4.0 4.0 0.00 0.00 0.00 49 1031.4
20260906163950 95 53 1.0 1.0 0.00 0.00 0.00 48 1031.5
20260906163445 95 66 0.0 5.0 0.00 0.00 0.00 48 1031.6
20260906162944 96 327 0.0 2.0 0.00 0.00 0.00 49 1031.4
20260906162442 95 43 2.0 3.0 0.00 0.00 0.00 50 1031.5
20260906161938 95 56 0.0 2.0 0.00 0.00 0.00 51 1031.5
20260906161437 95 60 1.0 2.0 0.00 0.00 0.00 53 1031.5
20260906160936 95 0 0.0 2.0 0.00 0.00 0.00 53 1031.5
20260906160430 95 119 0.0 3.0 0.00 0.00 0.00 53 1031.2
20260906155929 94 37 1.0 2.0 0.00 0.00 0.00 55 1031.6
20260906155428 94 30 2.0 2.0 0.00 0.00 0.00 55 1031.6
20260906154925 93 9 0.0 2.0 0.00 0.00 0.00 57 1031.5
20260906154425 92 47 1.0 2.0 0.00 0.00 0.00 57 1031.5
20260906153923 93 62 0.0 4.0 0.00 0.00 0.00 57 1031.5
20260906153422 92 44 1.0 2.0 0.00 0.00 0.00 58 1031.6
20260906152918 92 92 2.0 2.0 0.00 0.00 0.00 58 1031.4
20260906152412 91 351 2.0 2.0 0.00 0.00 0.00 59 1031.5
20260906151911 91 357 1.0 2.0 0.00 0.00 0.00 58 1031.3
20260906151407 90 354 2.0 2.0 0.00 0.00 0.00 63 1031.3
20260906150903 90 11 3.0 3.0 0.00 0.00 0.00 61 1031.4
20260906150358 90 74 1.0 2.0 0.00 0.00 0.00 62 1031.3
20260906145857 89 38 1.0 2.0 0.00 0.00 0.00 63 1031.2
20260906145356 89 5 1.0 3.0 0.00 0.00 0.00 63 1031.4
20260906144851 88 355 0.0 2.0 0.00 0.00 0.00 67 1031.2
20260906144346 87 10 1.0 2.0 0.00 0.00 0.00 67 1031.1
20260906143846 86 44 0.0 2.0 0.00 0.00 0.00 69 1031.3
20260906143342 85 29 0.0 2.0 0.00 0.00 0.00 71 1031.2
20260906142838 84 43 0.0 2.0 0.00 0.00 0.00 73 1031.2
20260906142332 83 352 0.0 2.0 0.00 0.00 0.00 74 1031.2
20260906141833 83 15 1.0 2.0 0.00 0.00 0.00 74 1031.3
20260906141327 83 51 1.0 2.0 0.00 0.00 0.00 75 1031.3
20260906140826 82 49 1.0 2.0 0.00 0.00 0.00 76 1031.1
20260906140321 82 28 1.0 2.0 0.00 0.00 0.00 76 1031.4
20260906135818 82 6 1.0 2.0 0.00 0.00 0.00 76 1031.3
20260906135314 81 8 1.0 2.0 0.00 0.00 0.00 77 1031.1
20260906134809 81 72 2.0 2.0 0.00 0.00 0.00 78 1031.1
20260906134304 80 32 2.0 2.0 0.00 0.00 0.00 79 1031.1
20260906133759 80 87 1.0 2.0 0.00 0.00 0.00 81 1031.0
20260906133255 79 42 2.0 3.0 0.00 0.00 0.00 81 1031.0
20260906132750 79 34 2.0 2.0 0.00 0.00 0.00 83 1030.9
20260906132245 78 33 2.0 2.0 0.00 0.00 0.00 85 1031.0
20260906131741 78 9 0.0 2.0 0.00 0.00 0.00 85 1031.1
20260906131236 77 22 1.0 2.0 0.00 0.00 0.00 86 1030.9
20260906130731 77 5 1.0 2.0 0.00 0.00 0.00 87 1031.2
20260906130226 77 0 1.0 2.0 0.00 0.00 0.00 88 1030.9
20260906125725 76 30 2.0 2.0 0.00 0.00 0.00 90 1030.8
20260906125224 76 3 1.0 2.0 0.00 0.00 0.00 90 1030.9
20260906124724 76 11 2.0 2.0 0.00 0.00 0.00 91 1031.0
20260906124219 75 21 2.0 2.0 0.00 0.00 0.00 91 1030.9
20260906123717 75 352 1.0 2.0 0.00 0.00 0.00 91 1030.9
20260906123214 75 0 0.0 1.0 0.00 0.00 0.00 91 1031.1
20260906122713 75 26 1.0 1.0 0.00 0.00 0.00 90 1030.8
20260906122208 75 12 0.0 1.0 0.00 0.00 0.00 90 1030.7
20260906121704 75 35 1.0 2.0 0.00 0.00 0.00 90 1030.7
20260906121200 75 29 1.0 2.0 0.00 0.00 0.00 90 1030.6
20260906120656 75 23 1.0 2.0 0.00 0.00 0.00 90 1030.5
20260906120154 75 19 1.0 1.0 0.00 0.00 0.00 89 1030.7
20260906115654 75 37 1.0 2.0 0.00 0.00 0.00 89 1030.5
20260906115149 75 343 1.0 2.0 0.00 0.00 0.00 90 1030.3
20260906114648 75 358 1.0 2.0 0.00 0.00 0.00 90 1030.2
20260906114144 75 10 1.0 2.0 0.00 0.00 0.00 89 1030.2
20260906113644 75 34 1.0 2.0 0.00 0.00 0.00 89 1030.3
20260906113143 76 356 0.0 2.0 0.00 0.00 0.00 89 1030.1
20260906112643 76 14 1.0 1.0 0.00 0.00 0.00 88 1030.1
20260906112140 76 13 0.0 1.0 0.00 0.00 0.00 88 1030.0
20260906111639 76 17 1.0 1.0 0.00 0.00 0.00 87 1030.2
20260906111134 76 21 0.0 1.0 0.00 0.00 0.00 87 1030.1
20260906110629 76 6 1.0 1.0 0.00 0.00 0.00 87 1030.1
20260906110124 76 353 1.0 1.0 0.00 0.00 0.00 87 1030.0
20260906105624 76 340 0.0 1.0 0.00 0.00 0.00 86 1030.0
20260906105120 77 3 0.0 1.0 0.00 0.00 0.00 87 1030.0
20260906104619 77 31 1.0 1.0 0.00 0.00 0.00 86 1029.9
20260906104113 77 16 1.0 2.0 0.00 0.00 0.00 86 1029.9
20260906103612 77 25 1.0 2.0 0.00 0.00 0.00 85 1029.9
20260906103107 77 16 1.0 1.0 0.00 0.00 0.00 85 1029.9
20260906102608 77 354 1.0 1.0 0.00 0.00 0.00 85 1029.5
20260906102103 77 349 1.0 1.0 0.00 0.00 0.00 84 1029.5
20260906101603 77 355 1.0 2.0 0.00 0.00 0.00 85 1029.7
20260906101103 77 12 1.0 2.0 0.00 0.00 0.00 84 1029.7
20260906100559 78 24 1.0 1.0 0.00 0.00 0.00 84 1029.5
20260906100059 78 48 1.0 1.0 0.00 0.00 0.00 83 1029.5
20260906095558 78 23 1.0 2.0 0.00 0.00 0.00 82 1029.7
20260906095054 78 28 1.0 1.0 0.00 0.00 0.00 82 1029.3
20260906094553 78 34 0.0 2.0 0.00 0.00 0.00 82 1029.3
20260906094049 78 46 1.0 2.0 0.00 0.00 0.00 81 1029.2
20260906093544 79 20 1.0 2.0 0.00 0.00 0.00 80 1029.2
20260906093039 79 25 0.0 1.0 0.00 0.00 0.00 80 1029.3
20260906092534 79 48 0.0 2.0 0.00 0.00 0.00 81 1029.2
20260906092029 79 29 2.0 2.0 0.00 0.00 0.00 79 1029.1
20260906091525 79 12 1.0 2.0 0.00 0.00 0.00 79 1029.1
20260906091022 80 17 1.0 2.0 0.00 0.00 0.00 79 1029.1
20260906090522 80 10 1.0 2.0 0.00 0.00 0.00 78 1029.0
20260906090017 80 16 0.0 2.0 0.00 0.00 0.00 78 1029.1
20260906085015 80 33 2.0 2.0 0.00 0.00 0.00 78 1029.1
20260906084515 80 22 1.0 2.0 0.00 0.00 0.00 78 1029.1
20260906084014 80 26 1.0 2.0 0.00 0.00 0.00 78 1029.0
20260906083510 80 51 2.0 2.0 0.00 0.00 0.00 79 1029.1
20260906083009 80 27 1.0 2.0 0.00 0.00 0.00 78 1028.9
20260906082505 80 9 1.0 2.0 0.00 0.00 0.00 77 1029.1
20260906082000 80 28 2.0 2.0 0.00 0.00 0.00 77 1029.0
20260906081456 80 29 2.0 2.0 0.00 0.00 0.00 77 1029.1
20260906080951 81 34 2.0 2.0 0.00 0.00 0.00 76 1029.2
20260906080449 81 358 2.0 2.0 0.00 0.00 0.00 76 1029.3
20260906075949 81 6 2.0 2.0 0.00 0.00 0.00 76 1029.2
20260906075443 81 0 1.0 2.0 0.00 0.00 0.00 75 1029.5
20260906074939 81 13 2.0 2.0 0.00 0.00 0.00 75 1029.5
20260906074439 81 14 2.0 2.0 0.00 0.00 0.00 74 1029.5
20260906073937 82 23 1.0 2.0 0.00 0.00 0.00 74 1029.4
20260906073432 82 0 1.0 2.0 0.00 0.00 0.00 74 1029.2
20260906072929 82 19 2.0 2.0 0.00 0.00 0.00 74 1029.1
20260906072424 82 16 0.0 2.0 0.00 0.00 0.00 73 1029.3
20260906071920 82 24 1.0 2.0 0.00 0.00 0.00 73 1029.3
20260906071415 82 21 1.0 2.0 0.00 0.00 0.00 73 1029.2
20260906070911 82 11 1.0 2.0 0.00 0.00 0.00 74 1029.4
20260906070407 82 351 2.0 2.0 0.00 0.00 0.00 74 1029.3
20260906065902 82 10 0.0 2.0 0.00 0.00 0.00 74 1029.5
20260906065356 82 325 1.0 2.0 0.00 0.00 0.00 74 1029.3
20260906064852 82 8 2.0 2.0 0.00 0.00 0.00 75 1029.5
20260906064349 81 10 1.0 2.0 0.00 0.00 0.00 76 1029.4
20260906063848 81 30 1.0 2.0 0.00 0.00 0.00 76 1029.6
20260906063344 81 22 2.0 2.0 0.00 0.00 0.00 76 1029.5
20260906062839 81 18 2.0 2.0 0.00 0.00 0.00 76 1029.6
20260906062338 82 25 2.0 2.0 0.00 0.00 0.00 75 1029.9
20260906061833 82 23 2.0 2.0 0.00 0.00 0.00 75 1029.7
20260906061330 82 17 1.0 2.0 0.00 0.00 0.00 74 1029.7
20260906060824 82 28 2.0 2.0 0.00 0.00 0.00 74 1029.9
20260906060322 82 14 2.0 2.0 0.00 0.00 0.00 73 1029.9
20260906055818 82 16 1.0 2.0 0.00 0.00 0.00 73 1029.7
20260906055313 83 13 2.0 2.0 0.00 0.00 0.00 72 1029.7
20260906054808 83 14 1.0 2.0 0.00 0.00 0.00 71 1029.6
20260906054304 83 11 1.0 2.0 0.00 0.00 0.00 71 1029.9
20260906053800 84 20 1.0 2.0 0.00 0.00 0.00 70 1029.7
20260906053255 84 28 1.0 2.0 0.00 0.00 0.00 69 1029.7
20260906052750 84 21 2.0 2.0 0.00 0.00 0.00 69 1029.9
20260906052246 84 2 1.0 2.0 0.00 0.00 0.00 69 1029.7
20260906051743 84 0 1.0 2.0 0.00 0.00 0.00 68 1029.7
20260906051243 85 0 0.0 1.0 0.00 0.00 0.00 68 1029.7
20260906050738 85 356 0.0 2.0 0.00 0.00 0.00 67 1029.7
20260906050233 85 24 0.0 2.0 0.00 0.00 0.00 67 1029.7
20260906045732 85 27 2.0 2.0 0.00 0.00 0.00 67 1029.6
20260906045227 85 338 2.0 2.0 0.00 0.00 0.00 66 1029.9
20260906044723 85 355 0.0 2.0 0.00 0.00 0.00 66 1029.5
20260906044218 86 29 1.0 1.0 0.00 0.00 0.00 66 1029.5
20260906043714 86 325 2.0 2.0 0.00 0.00 0.00 66 1029.5
20260906043210 86 12 1.0 2.0 0.00 0.00 0.00 65 1029.7
20260906042709 86 321 2.0 2.0 0.00 0.00 0.00 65 1029.5
20260906042209 86 119 1.0 2.0 0.00 0.00 0.00 65 1029.2
20260906041705 86 21 1.0 2.0 0.00 0.00 0.00 65 1029.5
20260906041205 87 130 0.0 2.0 0.00 0.00 0.00 65 1029.4
20260906040700 87 80 0.0 3.0 0.00 0.00 0.00 64 1029.4
20260906040156 87 152 0.0 2.0 0.00 0.00 0.00 64 1029.5
20260906035651 87 44 1.0 4.0 0.00 0.00 0.00 64 1029.4
20260906035147 87 127 2.0 3.0 0.00 0.00 0.00 64 1029.2
20260906034642 87 132 0.0 4.0 0.00 0.00 0.00 63 1029.5
20260906034136 87 14 1.0 2.0 0.00 0.00 0.00 64 1029.4
20260906033632 87 100 0.0 4.0 0.00 0.00 0.00 63 1029.4
20260906033132 87 127 3.0 3.0 0.00 0.00 0.00 63 1029.6
20260906032629 87 141 0.0 3.0 0.00 0.00 0.00 63 1029.7
20260906032128 88 326 0.0 2.0 0.00 0.00 0.00 63 1029.6
20260906031624 88 139 4.0 4.0 0.00 0.00 0.00 62 1029.7
20260906031119 88 145 2.0 2.0 0.00 0.00 0.00 62 1029.6
20260906030618 88 21 1.0 3.0 0.00 0.00 0.00 62 1029.6
20260906030114 88 120 2.0 4.0 0.00 0.00 0.00 61 1029.5
20260906025613 89 54 1.0 3.0 0.00 0.00 0.00 61 1029.4
20260906025112 89 52 0.0 4.0 0.00 0.00 0.00 60 1029.1
20260906024607 89 77 1.0 4.0 0.00 0.00 0.00 59 1029.3
20260906024101 89 107 2.0 4.0 0.00 0.00 0.00 59 1029.1
20260906023558 89 103 1.0 4.0 0.00 0.00 0.00 58 1028.9
20260906023057 89 131 2.0 5.0 0.00 0.00 0.00 57 1028.9
20260906022553 90 111 2.0 3.0 0.00 0.00 0.00 56 1028.6
20260906022048 90 147 2.0 3.0 0.00 0.00 0.00 56 1028.8
20260906021544 90 113 1.0 5.0 0.00 0.00 0.00 55 1028.7
20260906021043 90 129 2.0 4.0 0.00 0.00 0.00 55 1028.7
20260906020543 91 52 0.0 3.0 0.00 0.00 0.00 54 1028.7
20260906020042 91 121 2.0 4.0 0.00 0.00 0.00 53 1028.5
20260906015542 91 120 1.0 5.0 0.00 0.00 0.00 52 1028.4
20260906015041 92 145 4.0 9.0 0.00 0.00 0.00 51 1028.4
20260906014536 92 143 3.0 6.0 0.00 0.00 0.00 51 1028.4
20260906014032 93 132 3.0 9.0 0.00 0.00 0.00 50 1028.2
20260906013527 93 66 2.0 8.0 0.00 0.00 0.00 49 1028.0
20260906013023 94 140 3.0 5.0 0.00 0.00 0.00 47 1028.1
20260906012518 94 103 2.0 3.0 0.00 0.00 0.00 45 1027.8
20260906012017 94 28 0.0 2.0 0.00 0.00 0.00 45 1027.7
20260906011514 94 115 2.0 3.0 0.00 0.00 0.00 45 1027.7
20260906011013 95 124 2.0 3.0 0.00 0.00 0.00 44 1027.5
20260906010508 95 1 1.0 2.0 0.00 0.00 0.00 44 1027.6
20260906010005 95 57 0.0 3.0 0.00 0.00 0.00 43 1027.5
20260906005504 95 120 4.0 4.0 0.00 0.00 0.00 43 1027.6
20260906005002 96 105 1.0 3.0 0.00 0.00 0.00 42 1027.5
20260906004457 96 140 2.0 6.0 0.00 0.00 0.00 41 1027.6
20260906003952 96 133 1.0 3.0 0.00 0.00 0.00 40 1027.4
20260906003447 97 108 2.0 2.0 0.00 0.00 0.00 40 1027.6
20260906002943 97 48 2.0 3.0 0.00 0.00 0.00 39 1027.4
20260906002442 97 66 0.0 2.0 0.00 0.00 0.00 39 1027.5
20260906001938 98 88 2.0 2.0 0.00 0.00 0.00 39 1027.4
20260906001434 98 68 1.0 3.0 0.00 0.00 0.00 39 1027.4
20260906000928 99 110 0.0 1.0 0.00 0.00 0.00 38 1027.4
20260906000425 99 4 0.0 2.0 0.00 0.00 0.00 38 1027.3
20260905235919 99 336 0.0 2.0 0.00 0.00 0.00 39 1027.2
20260905235418 99 113 1.0 2.0 0.00 0.00 0.00 37 1027.2
20260905234914 100 70 2.0 2.0 0.00 0.00 0.00 36 1027.2
20260905234409 100 40 0.0 2.0 0.00 0.00 0.00 37 1027.2
20260905233903 100 17 2.0 2.0 0.00 0.00 0.00 36 1027.2
20260905233359 100 97 2.0 3.0 0.00 0.00 0.00 36 1027.2
20260905232858 100 2 0.0 2.0 0.00 0.00 0.00 37 1027.2
20260905232354 100 50 0.0 2.0 0.00 0.00 0.00 37 1027.2
20260905231849 100 143 2.0 5.0 0.00 0.00 0.00 37 1027.2
20260905231350 100 124 3.0 6.0 0.00 0.00 0.00 37 1027.2
20260905230847 100 110 3.0 4.0 0.00 0.00 0.00 38 1027.3
20260905230344 100 38 2.0 3.0 0.00 0.00 0.00 37 1027.2
20260905225843 100 332 2.0 3.0 0.00 0.00 0.00 38 1027.1
20260905225339 100 9 0.0 3.0 0.00 0.00 0.00 37 1027.1